{"data":{"norad_id":59204,"intl_designator":"2024-046D","name":"STARLINK-31522","alt_names":[],"object_type":"PAYLOAD","status":"ACTIVE","operator":null,"country":"US","launch_date":"2024-03-11","launch_site_code":"AFWTR","launch_vehicle":null,"mission":null,"orbit_class":"UNKNOWN","rcs_meters":null,"size_class":null,"mass_kg":null,"dimensions":null,"purposes":["comms"],"wikipedia_slug":null,"has_3d_model":false,"image_url":null,"decayed_at":null,"tle_current":{"epoch":"2026-09-20T11:26:08.589120Z","epoch_age_seconds":160891,"freshness":"FRESH","line1":"1 59204U 24046D   26263.47648830  .00001661  00000+0  60294-4 0  9993","line2":"2 59204  53.1593 329.7757 0001249  84.4922 275.6223 15.34402375142887","mean_motion":15.34402375,"eccentricity":0.0001249,"inclination_deg":53.1593,"raan_deg":329.7757,"arg_perigee_deg":84.4922,"mean_anomaly_deg":275.6223,"bstar":6.0294e-5,"rev_number":14288,"period_min":93.847612820594,"perigee_km":461.84176115137,"apogee_km":463.55060128004,"semimajor_km":6840.8331812157,"source":"CELESTRAK","updated_at":"2026-09-21T09:00:34.068347Z"}}}